| time (UTC) | temp F | wind direction | speed knots | gust knots | rain 1hr in | rain 24hr in | rain mn in | humidity % | barometer mb |
| 20260506003306 | 33 | 0 | 1.7 | 0.0 | 0.00 | 0.00 | 0.00 | 93 | 1003.0 |
| 20260506000307 | 32 | 0 | 0.0 | 0.0 | 0.00 | 0.00 | 0.00 | 10 | 1003.0 |
| 20260505233307 | 33 | 90 | 2.6 | 0.0 | 0.00 | 0.00 | 0.00 | 93 | 1003.0 |
| 20260505230306 | 33 | 0 | 0.0 | 0.0 | 0.00 | 0.00 | 0.00 | 93 | 1003.0 |
| 20260505223306 | 33 | 0 | 0.9 | 0.0 | 0.00 | 0.00 | 0.00 | 10 | 1003.0 |
| 20260505220306 | 33 | 0 | 0.0 | 0.0 | 0.00 | 0.00 | 0.00 | 10 | 1003.0 |
| 20260505213306 | 33 | 0 | 0.9 | 0.0 | 0.00 | 0.00 | 0.00 | 93 | 1003.0 |
| 20260505210306 | 33 | 0 | 0.9 | 0.0 | 0.00 | 0.00 | 0.00 | 93 | 1003.0 |
| 20260505203306 | 33 | 0 | 1.7 | 0.0 | 0.00 | 0.00 | 0.00 | 10 | 1003.0 |
| 20260505200306 | 33 | 80 | 2.6 | 0.0 | 0.00 | 0.00 | 0.00 | 10 | 1003.0 |
| 20260505193306 | 33 | 0 | 0.9 | 0.0 | 0.00 | 0.00 | 0.00 | 10 | 1003.0 |
| 20260505190306 | 33 | 0 | 1.7 | 0.0 | 0.00 | 0.00 | 0.00 | 93 | 1003.0 |
| 20260505183306 | 35 | 0 | 0.0 | 0.0 | 0.00 | 0.00 | 0.00 | 93 | 1003.0 |
| 20260505180307 | 35 | 80 | 2.6 | 0.0 | 0.00 | 0.00 | 0.00 | 93 | 1003.0 |
| 20260505173307 | 35 | 90 | 2.6 | 0.0 | 0.00 | 0.00 | 0.00 | 93 | 1003.0 |
| 20260505170307 | 35 | 120 | 2.6 | 0.0 | 0.00 | 0.00 | 0.00 | 86 | 1003.0 |
| 20260505163307 | 35 | 280 | 4.3 | 0.0 | 0.00 | 0.00 | 0.00 | 86 | 1003.0 |
| 20260505160307 | 33 | 250 | 4.3 | 0.0 | 0.00 | 0.00 | 0.00 | 93 | 1003.0 |
| 20260505153307 | 35 | 280 | 7.8 | 0.0 | 0.00 | 0.00 | 0.00 | 80 | 1003.0 |
| 20260505150306 | 37 | 0 | 2.6 | 0.0 | 0.00 | 0.00 | 0.00 | 86 | 1003.0 |
| 20260505140307 | 35 | 340 | 7.8 | 0.0 | 0.00 | 0.00 | 0.00 | 86 | 1003.0 |
| 20260505130307 | 39 | 270 | 6.1 | 0.0 | 0.00 | 0.00 | 0.00 | 69 | 1002.0 |
| 20260505123306 | 39 | 250 | 10.4 | 0.0 | 0.00 | 0.00 | 0.00 | 64 | 1002.0 |
| 20260505120306 | 39 | 260 | 7.8 | 0.0 | 0.00 | 0.00 | 0.00 | 69 | 1002.0 |
| 20260505113307 | 41 | 270 | 7.0 | 0.0 | 0.00 | 0.00 | 0.00 | 65 | 1001.0 |
| 20260505110307 | 39 | 10 | 5.2 | 0.0 | 0.00 | 0.00 | 0.00 | 75 | 1001.0 |
| 20260505100307 | 41 | 270 | 7.8 | 0.0 | 0.00 | 0.00 | 0.00 | 65 | 1001.0 |
| 20260505093306 | 39 | 240 | 7.8 | 0.0 | 0.00 | 0.00 | 0.00 | 69 | 1001.0 |
| 20260505090307 | 37 | 250 | 10.4 | 0.0 | 0.00 | 0.00 | 0.00 | 80 | 1001.0 |
| 20260505083306 | 35 | 260 | 8.7 | 0.0 | 0.00 | 0.00 | 0.00 | 80 | 1001.0 |
| 20260505080307 | 35 | 290 | 7.0 | 0.0 | 0.00 | 0.00 | 0.00 | 80 | 1001.0 |
| 20260505073306 | 35 | 300 | 7.8 | 0.0 | 0.00 | 0.00 | 0.00 | 74 | 1001.0 |
| 20260505070307 | 35 | 310 | 5.2 | 0.0 | 0.00 | 0.00 | 0.00 | 74 | 1000.0 |
| 20260505063306 | 37 | 330 | 1.7 | 0.0 | 0.00 | 0.00 | 0.00 | 74 | 1000.0 |
| 20260505060306 | 35 | 120 | 2.6 | 0.0 | 0.00 | 0.00 | 0.00 | 80 | 1000.0 |
| 20260505053309 | 33 | 0 | 0.0 | 0.0 | 0.00 | 0.00 | 0.00 | 86 | 1000.0 |
| 20260505050306 | 32 | 0 | 1.7 | 0.0 | 0.00 | 0.00 | 0.00 | 92 | 1000.0 |
| 20260505040306 | 28 | 110 | 2.6 | 0.0 | 0.00 | 0.00 | 0.00 | 10 | 1000.0 |
| 20260505033306 | 30 | 0 | 1.7 | 0.0 | 0.00 | 0.00 | 0.00 | 92 | 1000.0 |
| 20260505030306 | 28 | 0 | 1.7 | 0.0 | 0.00 | 0.00 | 0.00 | 10 | 1000.0 |
| 20260505023306 | 28 | 0 | 1.7 | 0.0 | 0.00 | 0.00 | 0.00 | 10 | 1000.0 |
| 20260505020306 | 30 | 0 | 0.0 | 0.0 | 0.00 | 0.00 | 0.00 | 10 | 1000.0 |
| 20260505013306 | 30 | 0 | 1.7 | 0.0 | 0.00 | 0.00 | 0.00 | 10 | 1000.0 |
| 20260505010306 | 30 | 0 | 0.0 | 0.0 | 0.00 | 0.00 | 0.00 | 10 | 1000.0 |